Location: *
(48.8780°N, 19.2358°E)
Time: 20:10:23
(UTC+00:00)

Cosmos 1908 - Pass Details

Date: 18 October 2019
Orbit: 511 x 532 km, 82.5° (Epoch: 22 November)

Event Time Altitude Azimuth Distance (km) Brightness Sun altitude
Rises 17:36:09 0° 199° (SSW) 2,663 7.0 -18.4°
Reaches altitude 10° 17:38:20 10° 204° (SSW) 1,776 6.1 -18.8°
Maximum altitude 17:42:10 55° 283° (WNW) 645 4.0 -19.4°
Drops below altitude 10° 17:46:01 10° 2° (N) 1,783 6.0 -20.0°
Sets 17:48:12 0° 7° (N) 2,674 6.9 -20.4°
